This demonstration page uses our WeatherBlox Daily Observations layout. Learn more.

Left ArrowRight Arrow

40.92945, -100.16068

Hourly Observations for July 18, 2020

Temp ( °F °C ) Dew Point ( °F °C ) Humidity (%) Winds ( mph kmh ) Pressure ( in mb ) Visibility ( mi km ) Precip ( " mm )
12:15 am 00:15 Clear 78 25.7 72 22.4 82 82 SSE 10 17 29.71 1006 10 16.0934 0 0
12:35 am 00:35 Clear 78 25.5 72 22.1 82 82 SSE 8 13 29.72 1006 10 16.0934 0 0
12:55 am 00:55 Clear 79 25.9 71 21.6 77 77 S 10 17 29.7 1006 10 16.0934 0 0
1:15 am 01:15 Clear 79 26.1 70 21.2 74 74 S 13 20 29.69 1005 10 16.0934 0 0
1:35 am 01:35 Clear 78 25.8 70 21 75 75 S 13 20 29.68 1005 10 16.0934 0 0
1:55 am 01:55 Clear 78 25.5 69 20.6 74 74 S 8 13 29.69 1005 10 16.0934 0 0
2:15 am 02:15 Clear 77 25.2 68 20.2 74 74 S 9 15 29.68 1005 10 16.0934 0 0
2:35 am 02:35 Clear 76 24.6 68 20 76 76 S 5 7 29.68 1005 10 16.0934 0 0
2:55 am 02:55 Clear 75 24 68 19.8 77 77 S 3 6 29.68 1005 10 16.0934 0 0
3:15 am 03:15 Clear 74 23.4 67 19.5 79 79 S 7 11 29.68 1005 10 16.0934 0 0
3:35 am 03:35 Clear 73 22.9 66 19 79 79 SSW 5 7 29.69 1005 10 16.0934 0 0
3:55 am 03:55 Clear 73 22.6 66 18.7 79 79 S 8 13 29.68 1005 10 16.0934 0 0
4:15 am 04:15 Clear 71 21.7 65 18.2 81 81 S 3 6 29.7 1006 10 16.0934 0 0
4:35 am 04:35 Clear 69 20.8 64 17.6 82 82 Calm 29.7 1006 10 16.0934 0 0
4:55 am 04:55 Clear 67 19.7 64 17.6 88 88 SW 5 7 29.72 1006 10 16.0934 0 0
5:15 am 05:15 Clear 70 21.2 63 17.4 79 79 W 7 11 29.71 1006 10 16.0934 0 0
5:35 am 05:35 Clear 69 20.5 63 17.1 81 81 WNW 7 11 29.7 1006 10 16.0934 0 0
5:55 am 05:55 Clear 67 19.3 63 17 87 87 WNW 5 7 29.72 1006 10 16.0934 0 0
6:15 am 06:15 Clear 65 18.2 62 16.8 92 92 Calm 29.73 1007 10 16.0934 0 0
6:35 am 06:35 Sunny 66 18.8 62 16.9 89 89 Calm 29.72 1007 10 16.0934 0 0
6:55 am 06:55 Sunny 66 18.8 62 16.9 89 89 S 5 7 29.73 1007 10 16.0934 0 0
7:15 am 07:15 Sunny 68 20 62 16.8 82 82 SSW 5 7 29.72 1007 10 16.0934 0 0
7:35 am 07:35 Sunny 71 21.8 63 17.1 75 75 Calm 29.7 1006 10 16.0934 0 0
7:55 am 07:55 Sunny 72 22.4 63 17.3 73 73 Calm 29.7 1006 10 16.0934 0 0
8:15 am 08:15 Sunny 75 24.1 63 17.1 65 65 WSW 3 6 29.69 1005 10 16.0934 0 0
8:35 am 08:35 Sunny 76 24.6 62 16.7 62 62 W 5 7 29.68 1005 10 16.0934 0 0
8:55 am 08:55 Sunny 77 25.2 62 16.9 60 60 W 6 9 29.69 1005 10 16.0934 0 0
9:15 am 09:15 Sunny 79 26 64 17.6 60 60 W 6 9 29.68 1005 10 16.0934 0 0
9:35 am 09:35 Sunny 81 27.3 65 18.1 57 57 WSW 7 11 29.67 1005 10 16.0934 0 0
9:55 am 09:55 Sunny 83 28.1 65 18.5 56 56 WSW 3 6 29.67 1005 10 16.0934 0 0
10:15 am 10:15 Sunny 85 29.5 67 19.2 54 54 WSW 3 6 29.65 1004 10 16.0934 0 0
10:35 am 10:35 Sunny 87 30.8 67 19.4 51 51 WSW 6 9 29.64 1004 10 16.0934 0 0
10:55 am 10:55 Sunny 87 30.5 67 19.7 52 52 WSW 6 9 29.66 1004 10 16.0934 0 0
11:15 am 11:15 Sunny 89 31.4 67 19.2 48 48 W 7 11 29.65 1004 10 16.0934 0 0
11:35 am 11:35 Sunny 91 32.8 65 18.6 43 43 WSW 8 13 29.64 1004 10 16.0934 0 0
11:55 am 11:55 Sunny 92 33.1 68 20.2 47 47 W 6 9 29.64 1004 10 16.0934 0 0
12:15 pm 12:15 Sunny 93 34 64 18 39 39 W 6 9 29.63 1003 10 16.0934 0 0
12:35 pm 12:35 Sunny 94 34.4 65 18.6 39 39 WNW 5 7 29.63 1003 10 16.0934 0 0
12:55 pm 12:55 Sunny 94 34.7 65 18.4 38 38 WSW 5 7 29.62 1003 10 16.0934 0 0
1:15 pm 13:15 Sunny 94 34.6 68 19.9 42 42 NW 8 13 29.62 1003 10 16.0934 0 0
1:35 pm 13:35 Sunny 95 35.2 70 20.9 43 43 NW 10 17 29.62 1003 10 16.0934 0 0
1:55 pm 13:55 Sunny 97 35.9 69 20.7 41 41 NNW 10 17 29.61 1003 10 16.0934 0 0
2:15 pm 14:15 Sunny 96 35.8 68 19.9 39 39 W 7 11 29.61 1003 10 16.0934 0 0
2:35 pm 14:35 Sunny 98 36.6 67 19.5 37 37 W 6 9 29.61 1003 10 16.0934 0 0
2:55 pm 14:55 Sunny 97 36.2 67 19.2 37 37 WSW 6 9 29.61 1003 10 16.0934 0 0
3:15 pm 15:15 Sunny 97 36.2 66 18.9 36 36 WNW 8 13 29.61 1003 10 16.0934 0 0
3:35 pm 15:35 Sunny 97 36 73 22.5 46 46 W 7 11 29.61 1003 10 16.0934 0 0
3:55 pm 15:55 Sunny 95 35.1 72 22.3 47 47 WNW 9 15 29.63 1003 10 16.0934 0 0
4:15 pm 16:15 Sunny 95 35.1 72 22 47 47 NW 9 15 29.63 1003 10 16.0934 0 0
4:35 pm 16:35 Sunny 92 33.6 68 19.9 44 44 N 10 17 29.66 1004 10 16.0934 0 0
4:55 pm 16:55 Sunny 87 30.7 68 19.8 52 52 N 20 31 29.69 1006 10 16.0934 0 0
5:15 pm 17:15 Partly Cloudy 84 29.1 69 20.3 59 59 N 9 15 29.73 1007 10 16.0934 0 0
5:35 pm 17:35 Partly Cloudy 83 28.3 69 20.7 63 63 N 10 17 29.74 1007 10 16.0934 0 0
5:55 pm 17:55 Partly Cloudy 82 27.5 69 20.8 67 67 N 13 20 29.75 1007 10 16.0934 0 0
6:15 pm 18:15 Mostly Cloudy with Light Rain 81 27 70 21.2 71 71 N 9 15 29.76 1008 10 16.0934 0 0
6:35 pm 18:35 Partly Cloudy 81 27.1 70 21 69 69 NNE 7 11 29.76 1008 10 16.0934 0 0
6:55 pm 18:55 Sunny 81 27.3 70 21 69 69 N 13 20 29.77 1008 10 16.0934 0 0
7:15 pm 19:15 Sunny 81 27.1 70 21 69 69 NNE 10 17 29.76 1008 10 16.0934 0 0
7:35 pm 19:35 Sunny 80 26.6 69 20.5 69 69 NE 7 11 29.76 1008 10 16.0934 0 0
7:55 pm 19:55 Sunny 79 26 69 20.6 72 72 NNE 10 17 29.77 1008 10 16.0934 0 0
8:15 pm 20:15 Sunny 78 25.6 68 20 71 71 NNE 13 20 29.78 1008 10 16.0934 0 0
8:35 pm 20:35 Sunny 78 25.5 68 19.8 71 71 NNE 12 19 29.8 1009 10 16.0934 0 0
8:55 pm 20:55 Sunny 77 25.1 68 19.8 73 73 NNE 13 20 29.81 1009 10 16.0934 0 0
9:15 pm 21:15 Clear 76 24.5 67 19.6 74 74 NNE 8 13 29.82 1010 10 16.0934 0 0
9:35 pm 21:35 Clear with Nearby Thunderstorms 75 24 67 19.6 76 76 NNE 10 17 29.82 1010 10 16.0934 0 0
9:55 pm 21:55 Clear 75 23.7 67 19.6 78 78 NNE 9 15 29.84 1011 10 16.0934 0 0
10:15 pm 22:15 Clear 74 23.5 67 19.7 79 79 NNE 8 13 29.84 1011 10 16.0934 0 0
10:35 pm 22:35 Clear 74 23.1 67 19.7 81 81 NNE 7 11 29.86 1011 10 16.0934 0 0
10:55 pm 22:55 Clear 73 23 67 19.7 82 82 NNE 5 7 29.89 1012 10 16.0934 0 0
11:15 pm 23:15 Clear 73 22.8 67 19.6 82 82 Calm 29.92 1013 10 16.0934 0 0
11:35 pm 23:35 Partly Cloudy 72 22.4 67 19.5 84 84 Calm 29.93 1014 10 16.0934 0 0
11:55 pm 23:55 Partly Cloudy 72 22.4 67 19.4 83 83 Calm 29.94 1014 10 16.0934 0 0

Powered by AerisWeather